User: anonymous   Login
Location: Archemont
(49.1579°N, 1.7598°E)
Time: 02:49:14
(UTC+00:00)
Language:

Transit 2A Rocket - Orbit

View from above orbital plane
View from above orbital plane
View from above satellite
View from above satellite

Ground track
Ground track

The orbit data is extracted from the following two-line orbital elements,

1    47U 60007C   24112.86259514  .00002370  00000-0  53849-3 0  9998
2    47  66.6684 357.4233 0224791 353.3060   6.5051 14.43484970337678
Epoch (UTC): 21 April 2024 20:42:08
Eccentricity: 0.0224791
inclination: 66.6684°
perigee height: 587 km
apogee height: 907 km
right ascension of ascending node: 357.4233°
argument of perigee: 353.3060°
revolutions per day: 14.43484970
mean anomaly at epoch: 6.5051°
orbit number at epoch: 33767

The dashed part of the orbit path shows where the satellite is in the earth's shadow,  

DLR